Weather History for Galesburg, IL

Change the Weather History Date:

Wednesday, September 11, 2013

  Actual Average Record
Temperature  
Mean Temperature 78 °F -  
Max Temperature 90 °F 78 °F 92 °F (1953)
Min Temperature 68 °F 56 °F 42 °F (1959)
Cooling Degree Days 14    
Growing Degree Days 28 (Base 50)    
Moisture  
Dew Point 68 °F    
Average Humidity 76    
Maximum Humidity 100    
Minimum Humidity 49    
Precipitation  
Precipitation 0.01 in - - ()
Sea Level Pressure  
Sea Level Pressure 30.06 in    
Wind  
Wind Speed 6 mph (WSW)    
Max Wind Speed 13 mph    
Max Gust Speed 21 mph    
Visibility 10 miles    
Events Rain    
Averages and records for this station are not official NWS values.
T = Trace of Precipitation, MM = Missing Value Source: NWS Daily Summary

Daily Weather History Graph

Daily Weather History Graph

Search for Another Location

Airport:

Trip Planner

Search our weather history database for the weather conditions in past years. The results will help you decide how hot, cold, wet, or windy it might be!

Date:

Astronomy

Sep. 11, 2013 Rise Set
Actual Time 6:38 AM CDT 7:17 PM CDT
Civil Twilight 6:10 AM CDT 7:44 PM CDT
Nautical Twilight 5:38 AM CDT 8:17 PM CDT
Astronomical Twilight 5:04 AM CDT 8:51 PM CDT
Moon 1:09 PM CDT (9/11) 11:10 PM CDT (9/11)
Length of Visible Light 13h 33m
Length of Day
12h 38m
Waxing Crescent, 39% of the Moon is Illuminated
Sep 11
Waxing Crescent
Sep 12
First Quarter
Sep 19
Full
Sep 26
Last Quarter
Oct 4
New

Hourly Weather History & Observations

Time (CDT) Temp. Heat Index Dew Point Humidity Pressure Visibility Wind Dir Wind Speed Gust Speed Precip Events Conditions
12:15 AM 73.6 °F - 67.3 °F 81% 30.04 in 10.0 mi SSW 5.8 mph - N/A   Clear
12:35 AM 72.5 °F - 67.1 °F 83% 30.04 in 10.0 mi SSW 6.9 mph - N/A   Clear
12:55 AM 71.8 °F - 66.7 °F 84% 30.04 in 10.0 mi SSW 6.9 mph - N/A   Clear
1:15 AM 71.6 °F - 66.2 °F 83% 30.04 in 10.0 mi SSW 5.8 mph - N/A   Clear
1:55 AM 72.1 °F - 65.5 °F 79% 30.04 in 10.0 mi SSW 6.9 mph - N/A   Clear
2:15 AM 72.1 °F - 65.3 °F 79% 30.04 in 10.0 mi SSW 8.1 mph - N/A   Clear
2:35 AM 71.1 °F - 65.3 °F 82% 30.05 in 10.0 mi SSW 6.9 mph - N/A   Clear
2:55 AM 70.7 °F - 65.1 °F 82% 30.05 in 10.0 mi SW 5.8 mph - N/A   Clear
3:15 AM 70.5 °F - 64.9 °F 82% 30.05 in 10.0 mi SSW 5.8 mph - N/A   Clear
3:35 AM 70.0 °F - 65.3 °F 85% 30.05 in 10.0 mi SSW 5.8 mph - N/A   Clear
3:55 AM 70.2 °F - 64.9 °F 83% 30.05 in 10.0 mi SSW 6.9 mph - N/A   Clear
4:15 AM 69.4 °F - 64.8 °F 85% 30.05 in 10.0 mi SSW 6.9 mph - N/A   Clear
4:35 AM 70.2 °F - 64.8 °F 83% 30.04 in 10.0 mi SW 4.6 mph - N/A   Clear
4:55 AM 69.1 °F - 64.8 °F 86% 30.05 in 10.0 mi SW 5.8 mph - N/A   Clear
5:15 AM 68.4 °F - 64.8 °F 88% 30.05 in 10.0 mi SW 4.6 mph - N/A   Clear
5:35 AM 69.8 °F - 64.9 °F 84% 30.06 in 10.0 mi SW 4.6 mph - N/A   Clear
5:55 AM 71.2 °F - 64.9 °F 80% 30.06 in 10.0 mi SW 5.8 mph - N/A   Scattered Clouds
6:15 AM 72.0 °F - 64.9 °F 78% 30.06 in 10.0 mi SW 6.9 mph - N/A   Scattered Clouds
6:35 AM 71.8 °F - 64.8 °F 78% 30.07 in 10.0 mi SW 6.9 mph - N/A   Clear
6:55 AM 69.3 °F - 64.9 °F 86% 30.07 in 10.0 mi SSW 5.8 mph - N/A   Clear
7:15 AM 69.4 °F - 65.3 °F 87% 30.08 in 10.0 mi SSW 5.8 mph - N/A   Scattered Clouds
7:35 AM 70.3 °F - 66.0 °F 86% 30.08 in 10.0 mi SSW 4.6 mph - N/A   Mostly Cloudy
7:55 AM 72.0 °F - 65.7 °F 80% 30.09 in 10.0 mi WSW 4.6 mph - N/A   Mostly Cloudy
8:15 AM 74.5 °F - 66.4 °F 76% 30.09 in 10.0 mi SW 4.6 mph - N/A   Scattered Clouds
8:35 AM 76.6 °F - 66.9 °F 72% 30.09 in 10.0 mi WSW 4.6 mph - N/A   Scattered Clouds
8:55 AM 78.8 °F - 67.5 °F 68% 30.09 in 10.0 mi WSW 4.6 mph - N/A   Clear
9:15 AM 79.9 °F - 67.8 °F 66% 30.09 in 10.0 mi West 6.9 mph - N/A   Clear
9:35 AM 80.8 °F 83.5 °F 68.2 °F 65% 30.09 in 10.0 mi West 9.2 mph - N/A   Scattered Clouds
9:55 AM 81.3 °F 84.3 °F 68.7 °F 65% 30.09 in 10.0 mi WSW 8.1 mph - N/A   Scattered Clouds
10:06 AM 82.4 °F 86.3 °F 69.8 °F 66% 30.09 in 10.0 mi West 4.6 mph - N/A   Clear
10:15 AM 82.4 °F 85.8 °F 69.1 °F 64% 30.09 in 10.0 mi WSW 4.6 mph - N/A   Clear
10:25 AM 82.4 °F 86.3 °F 69.8 °F 66% 30.09 in 10.0 mi SW 4.6 mph - N/A   Clear
10:35 AM 83.7 °F 87.2 °F 69.1 °F 61% 30.09 in 10.0 mi SW 5.8 mph - N/A   Clear
10:45 AM 84.2 °F 88.4 °F 69.8 °F 62% 30.09 in 10.0 mi SW 6.9 mph - N/A   Clear
10:55 AM 84.4 °F 87.6 °F 68.4 °F 58% 30.09 in 10.0 mi WSW 5.8 mph - N/A   Clear
11:06 AM 84.2 °F 88.4 °F 69.8 °F 62% 30.09 in 10.0 mi SSW 5.8 mph - N/A   Clear
11:15 AM 85.6 °F 89.7 °F 69.3 °F 58% 30.08 in 10.0 mi SW 4.6 mph - N/A   Clear
11:26 AM 86.0 °F 90.4 °F 69.8 °F 58% 30.08 in 10.0 mi SW 5.8 mph - N/A   Clear
11:35 AM 86.5 °F 90.7 °F 68.9 °F 56% 30.08 in 10.0 mi WSW 4.6 mph - N/A   Clear
11:46 AM 87.8 °F 92.6 °F 69.8 °F 55% 30.08 in 10.0 mi WSW 8.1 mph - N/A   Clear
11:55 AM 87.3 °F 92.0 °F 69.6 °F 56% 30.08 in 10.0 mi SW 10.4 mph - N/A   Clear
12:05 PM 87.8 °F 92.6 °F 69.8 °F 55% 30.07 in 10.0 mi SW 9.2 mph - N/A   Clear
12:15 PM 87.8 °F 91.8 °F 68.7 °F 53% 30.07 in 10.0 mi West 6.9 mph - N/A   Clear
12:35 PM 89.1 °F 92.9 °F 68.0 °F 50% 30.07 in 10.0 mi WSW 12.7 mph - N/A   Clear
12:55 PM 89.8 °F 93.8 °F 68.4 °F 49% 30.07 in 10.0 mi West 10.4 mph 20.7 mph N/A   Clear
1:15 PM 89.4 °F 93.1 °F 68.2 °F 49% 30.07 in 10.0 mi West 10.4 mph 17.3 mph N/A   Clear
1:35 PM 87.8 °F 91.4 °F 68.2 °F 52% 30.07 in 10.0 mi WSW 10.4 mph - N/A   Clear
1:55 PM 86.4 °F 90.0 °F 68.4 °F 55% 30.07 in 10.0 mi WSW 5.8 mph - N/A   Clear
2:15 PM 85.6 °F 89.1 °F 68.2 °F 56% 30.06 in 10.0 mi WNW 8.1 mph - N/A   Scattered Clouds
2:35 PM 85.5 °F 87.9 °F 66.6 °F 53% 30.06 in 10.0 mi WNW 11.5 mph 16.1 mph N/A   Clear
2:55 PM 84.4 °F 87.6 °F 68.0 °F 58% 30.06 in 10.0 mi WNW 8.1 mph - N/A   Clear
3:15 PM 85.5 °F 89.8 °F 69.4 °F 59% 30.06 in 10.0 mi WNW 6.9 mph - N/A   Clear
3:35 PM 85.1 °F 88.8 °F 68.7 °F 58% 30.06 in 10.0 mi WNW 5.8 mph - N/A   Clear
3:55 PM 84.2 °F 87.9 °F 69.1 °F 60% 30.05 in 10.0 mi NW 6.9 mph - N/A   Clear
4:15 PM 82.4 °F 85.6 °F 68.5 °F 63% 30.05 in 10.0 mi NW 8.1 mph - N/A   Clear
4:35 PM 81.0 °F 84.1 °F 68.9 °F 67% 30.05 in 10.0 mi NW 8.1 mph - N/A Rain Light Rain
4:55 PM 79.7 °F - 68.4 °F 68% 30.06 in 10.0 mi NW 10.4 mph 17.3 mph N/A Rain Light Rain
5:15 PM 76.6 °F - 69.4 °F 78% 30.06 in 10.0 mi NW 8.1 mph - N/A Rain Light Rain
5:35 PM 75.2 °F - 69.8 °F 83% 30.06 in 10.0 mi NW 9.2 mph - N/A Rain Light Rain
5:55 PM 73.6 °F - 69.8 °F 88% 30.04 in 10.0 mi NW 8.1 mph - N/A Rain Rain
6:15 PM 72.5 °F - 69.8 °F 91% 30.03 in 10.0 mi NW 4.6 mph - N/A Rain Light Rain
6:35 PM 71.8 °F - 70.0 °F 94% 30.03 in 10.0 mi NW 4.6 mph - N/A Rain Light Rain
6:55 PM 71.8 °F - 70.3 °F 95% 30.03 in 10.0 mi WNW 3.5 mph - N/A   Mostly Cloudy
7:15 PM 71.6 °F - 70.2 °F 95% 30.03 in 10.0 mi Calm Calm - N/A   Scattered Clouds
7:35 PM 71.6 °F - 70.7 °F 97% 30.03 in 10.0 mi Calm Calm - 0.01 in Rain Light Rain
7:55 PM 71.6 °F - 70.7 °F 97% 30.03 in 10.0 mi Calm Calm - 0.01 in   Overcast
8:15 PM 70.9 °F - 70.3 °F 98% 30.04 in 10.0 mi Calm Calm - N/A   Overcast
8:35 PM 70.7 °F - 70.2 °F 98% 30.05 in 10.0 mi SSW 3.5 mph - N/A   Mostly Cloudy
8:55 PM 70.5 °F - 70.2 °F 99% 30.05 in 10.0 mi SSW 3.5 mph - N/A   Mostly Cloudy
9:15 PM 70.0 °F - 70.0 °F 100% 30.06 in 10.0 mi SSW 3.5 mph - N/A   Mostly Cloudy
9:35 PM 69.8 °F - 69.8 °F 100% 30.06 in 10.0 mi Calm Calm - N/A   Overcast
9:55 PM 70.2 °F - 70.2 °F 100% 30.06 in 10.0 mi SSW 3.5 mph - N/A   Overcast
10:15 PM 70.3 °F - 70.2 °F 99% 30.06 in 10.0 mi SW 3.5 mph - N/A   Overcast
10:35 PM 70.7 °F - 70.3 °F 99% 30.06 in 10.0 mi Calm Calm - N/A   Overcast
10:55 PM 70.5 °F - 70.0 °F 98% 30.06 in 10.0 mi SW 3.5 mph - N/A   Scattered Clouds
11:15 PM 70.2 °F - 70.0 °F 99% 30.05 in 10.0 mi SW 3.5 mph - N/A   Scattered Clouds
11:35 PM 70.2 °F - 70.2 °F 100% 30.05 in 10.0 mi SW 3.5 mph - N/A Rain Light Rain
11:55 PM 70.7 °F - 70.0 °F 98% 30.04 in 10.0 mi SW 3.5 mph - N/A   Scattered Clouds